When you browse on this site, cookies collect data to enhance your experience and personalize the content and advertising you see.
Visit our Privacy Policy to learn more. By continuing to use the site, you agree to this use of cookies and data.
  • In Sweden
  • List of Countries
  • For 7 days
  • Water Temperature
  • Weather Map
  • Weather Widgets
  • user-avatar
    Login

    Hourly Weather Nádasdladány

    Today, 17 October, Thursday

    Time Temperature Precipitation Wind Pressure Humidity
    00:00 +12°C° 0 mm 1 mps 751 mmHg 74%
    01:00 +12°C° 0 mm 1 mps 752 mmHg 73%
    02:00 +12°C° 0 mm 1 mps 751 mmHg 71%
    03:00 +11°C° 0 mm 0 mps 751 mmHg 70%
    04:00 +11°C° 0 mm 0 mps 751 mmHg 68%
    05:00 +11°C° 0 mm 0 mps 751 mmHg 67%
    06:00 +11°C° 0 mm 0 mps 751 mmHg 66%
    07:00 +12°C° 0 mm 0 mps 752 mmHg 65%
    08:00 +15°C° 0 mm 1 mps 752 mmHg 59%
    09:00 +16°C° 0 mm 1 mps 752 mmHg 54%
    10:00 +19°C° 0 mm 1 mps 752 mmHg 49%
    11:00 +20°C° 0 mm 1 mps 752 mmHg 49%
    12:00 +20°C° 0 mm 2 mps 751 mmHg 48%
    13:00 +21°C° 0 mm 2 mps 751 mmHg 48%
    14:00 +21°C° 0 mm 2 mps 751 mmHg 51%
    15:00 +22°C° 0 mm 1 mps 751 mmHg 54%
    16:00 +21°C° 0 mm 1 mps 750 mmHg 57%
    17:00 +20°C° 0 mm 1 mps 751 mmHg 62%
    18:00 +19°C° 0 mm 1 mps 751 mmHg 66%
    19:00 +16°C° 0 mm 1 mps 751 mmHg 71%
    20:00 +16°C° 0 mm 1 mps 751 mmHg 74%
    21:00 +16°C° 0 mm 1 mps 751 mmHg 77%
    22:00 +15°C° 0 mm 1 mps 751 mmHg 80%
    23:00 +15°C° 0 mm 1 mps 751 mmHg 82%

    Tomorrow, 18 October, Friday

    Time Temperature Precipitation Wind Pressure Humidity
    00:00 +15°C° 0 mm 1 mps 750 mmHg 84%
    01:00 +14°C° 0 mm 1 mps 750 mmHg 86%
    02:00 +14°C° 0 mm 1 mps 750 mmHg 86%
    03:00 +14°C° 0 mm 1 mps 750 mmHg 86%
    04:00 +13°C° 0 mm 1 mps 750 mmHg 86%
    05:00 +14°C° 0 mm 1 mps 750 mmHg 85%
    06:00 +14°C° 0 mm 1 mps 750 mmHg 84%
    07:00 +14°C° 0 mm 1 mps 750 mmHg 82%
    08:00 +16°C° 0 mm 2 mps 750 mmHg 73%
    09:00 +18°C° 0 mm 2 mps 750 mmHg 65%
    10:00 +20°C° 0 mm 3 mps 750 mmHg 56%
    11:00 +20°C° 0 mm 4 mps 749 mmHg 52%
    12:00 +21°C° 0 mm 4 mps 749 mmHg 49%
    13:00 +22°C° 0 mm 5 mps 749 mmHg 46%
    14:00 +22°C° 0 mm 4 mps 749 mmHg 49%
    15:00 +21°C° 0 mm 4 mps 748 mmHg 51%
    16:00 +21°C° 0 mm 3 mps 748 mmHg 54%
    17:00 +20°C° 0 mm 3 mps 748 mmHg 59%
    18:00 +18°C° 0 mm 2 mps 748 mmHg 63%
    19:00 +17°C° 0 mm 2 mps 748 mmHg 68%
    20:00 +17°C° 0 mm 2 mps 749 mmHg 69%
    21:00 +16°C° 0 mm 2 mps 749 mmHg 70%
    22:00 +16°C° 0 mm 2 mps 749 mmHg 71%
    23:00 +15°C° 0 mm 2 mps 749 mmHg 74%

    Day after tomorrow, 19 October, Saturday

    Time Temperature Precipitation Wind Pressure Humidity
    00:00 +15°C° 0 mm 2 mps 749 mmHg 77%
    01:00 +14°C° 0 mm 2 mps 749 mmHg 80%
    02:00 +14°C° 0 mm 2 mps 749 mmHg 82%
    03:00 +14°C° 0 mm 2 mps 749 mmHg 85%
    04:00 +13°C° 0 mm 2 mps 749 mmHg 87%
    05:00 +13°C° 0 mm 2 mps 749 mmHg 87%
    06:00 +13°C° 0 mm 2 mps 749 mmHg 87%
    07:00 +13°C° 0 mm 2 mps 749 mmHg 87%
    08:00 +14°C° 0 mm 3 mps 749 mmHg 76%
    09:00 +17°C° 0 mm 4 mps 749 mmHg 66%
    10:00 +20°C° 0 mm 4 mps 749 mmHg 55%
    11:00 +21°C° 0 mm 5 mps 749 mmHg 50%
    12:00 +22°C° 0 mm 6 mps 748 mmHg 45%
    13:00 +23°C° 0 mm 7 mps 748 mmHg 40%
    14:00 +23°C° 0 mm 6 mps 748 mmHg 42%
    15:00 +22°C° 0 mm 5 mps 748 mmHg 44%
    16:00 +22°C° 0 mm 5 mps 747 mmHg 46%
    17:00 +20°C° 0 mm 5 mps 747 mmHg 50%
    18:00 +19°C° 0 mm 4 mps 748 mmHg 54%
    19:00 +18°C° 0 mm 4 mps 748 mmHg 59%
    20:00 +18°C° 0 mm 4 mps 748 mmHg 60%
    21:00 +17°C° 0 mm 4 mps 748 mmHg 62%
    22:00 +17°C° 0 mm 4 mps 748 mmHg 63%
    23:00 +17°C° 0 mm 4 mps 748 mmHg 67%

    20 October, Sunday

    Time Temperature Precipitation Wind Pressure Humidity
    00:00 +16°C° 0 mm 5 mps 748 mmHg 71%
    01:00 +15°C° 0 mm 5 mps 748 mmHg 74%
    02:00 +15°C° 0 mm 4 mps 748 mmHg 76%
    03:00 +15°C° 0 mm 4 mps 749 mmHg 79%
    04:00 +15°C° 0 mm 4 mps 749 mmHg 81%
    05:00 +15°C° 0 mm 4 mps 749 mmHg 81%
    06:00 +15°C° 0 mm 4 mps 749 mmHg 81%
    07:00 +15°C° 0 mm 4 mps 749 mmHg 82%
    08:00 +17°C° 0 mm 5 mps 749 mmHg 72%
    09:00 +20°C° 0 mm 6 mps 750 mmHg 62%
    10:00 +22°C° 0 mm 7 mps 750 mmHg 52%
    11:00 +23°C° 0 mm 7 mps 749 mmHg 48%
    12:00 +24°C° 0 mm 7 mps 749 mmHg 44%
    13:00 +26°C° 0 mm 8 mps 749 mmHg 41%
    14:00 +24°C° 0 mm 7 mps 749 mmHg 43%
    15:00 +24°C° 0 mm 7 mps 748 mmHg 46%
    16:00 +23°C° 0 mm 6 mps 748 mmHg 49%
    17:00 +22°C° 0 mm 5 mps 748 mmHg 54%
    18:00 +21°C° 0 mm 5 mps 748 mmHg 59%
    19:00 +19°C° 0 mm 5 mps 748 mmHg 64%
    20:00 +19°C° 0 mm 5 mps 749 mmHg 65%
    21:00 +19°C° 0 mm 5 mps 749 mmHg 65%
    22:00 +17°C° 0 mm 5 mps 749 mmHg 66%
    23:00 +17°C° 0 mm 5 mps 749 mmHg 66%

    21 October, Monday

    Time Temperature Precipitation Wind Pressure Humidity
    00:00 +17°C° 0 mm 6 mps 749 mmHg 66%
    01:00 +17°C° 0 mm 6 mps 749 mmHg 67%
    02:00 +17°C° 0 mm 6 mps 749 mmHg 66%
    03:00 +17°C° 0 mm 7 mps 749 mmHg 65%
    04:00 +17°C° 0 mm 7 mps 748 mmHg 65%
    05:00 +17°C° 0 mm 7 mps 749 mmHg 63%
    06:00 +17°C° 0 mm 7 mps 749 mmHg 62%
    07:00 +17°C° 0 mm 7 mps 749 mmHg 61%
    08:00 +20°C° 0 mm 7 mps 749 mmHg 56%
    09:00 +22°C° 0 mm 8 mps 749 mmHg 50%
    10:00 +24°C° 0 mm 8 mps 750 mmHg 45%
    11:00 +26°C° 0 mm 8 mps 750 mmHg 44%
    12:00 +27°C° 0 mm 8 mps 750 mmHg 43%
    13:00 +28°C° 0 mm 7 mps 750 mmHg 42%
    14:00 +27°C° 0 mm 7 mps 749 mmHg 46%
    15:00 +26°C° 0 mm 6 mps 749 mmHg 50%
    16:00 +25°C° 0 mm 5 mps 749 mmHg 54%
    17:00 +23°C° 0 mm 4 mps 750 mmHg 60%
    18:00 +21°C° 0 mm 3 mps 750 mmHg 66%
    19:00 +20°C° 0 mm 3 mps 750 mmHg 72%
    20:00 +19°C° 0 mm 2 mps 751 mmHg 74%
    21:00 +19°C° 0 mm 2 mps 751 mmHg 77%
    22:00 +18°C° 0 mm 2 mps 751 mmHg 80%
    23:00 +17°C° 0 mm 2 mps 751 mmHg 80%

    22 October, Tuesday

    Time Temperature Precipitation Wind Pressure Humidity
    00:00 +18°C° 0 mm 1 mps 752 mmHg 80%
    01:00 +16°C° 0 mm 1 mps 752 mmHg 80%
    02:00 +16°C° 0 mm 1 mps 752 mmHg 82%
    03:00 +15°C° 0 mm 1 mps 752 mmHg 83%
    04:00 +15°C° 0 mm 1 mps 752 mmHg 84%
    05:00 +15°C° 0 mm 1 mps 753 mmHg 84%
    06:00 +15°C° 0 mm 1 mps 753 mmHg 85%
    07:00 +15°C° 0 mm 1 mps 753 mmHg 85%
    08:00 +18°C° 0 mm 1 mps 753 mmHg 77%
    09:00 +20°C° 0 mm 1 mps 754 mmHg 69%
    10:00 +20°C° 0 mm 2 mps 754 mmHg 61%
    11:00 +21°C° 0 mm 2 mps 754 mmHg 58%
    12:00 +23°C° 0 mm 2 mps 754 mmHg 55%
    13:00 +24°C° 0 mm 2 mps 754 mmHg 53%
    14:00 +23°C° 0 mm 2 mps 754 mmHg 55%
    15:00 +23°C° 0 mm 2 mps 754 mmHg 57%
    16:00 +21°C° 0 mm 2 mps 753 mmHg 60%
    17:00 +21°C° 0 mm 1 mps 753 mmHg 65%
    18:00 +20°C° 0 mm 1 mps 754 mmHg 69%
    19:00 +19°C° 0 mm 1 mps 754 mmHg 74%
    20:00 +18°C° 0 mm 1 mps 754 mmHg 76%
    21:00 +18°C° 0 mm 1 mps 754 mmHg 77%
    22:00 +16°C° 0 mm 1 mps 754 mmHg 79%
    23:00 +16°C° 0 mm 1 mps 754 mmHg 80%
    Show more